Location: ????
(32.1228°N, 34.8377°E)
Time: 00:20:00
(UTC+00:00)

ERS-2 - Pass Details

Date: 21 September 2020
Orbit: 492 x 499 km, 98.6° (Epoch: 21 October)

Event Time Altitude Azimuth Distance (km) Brightness Sun altitude
Rises 01:47:36 0° 159° (SSE) 2,573 5.8 -21.9°
Reaches altitude 10° 01:49:41 10° 156° (SSE) 1,694 4.9 -21.5°
Maximum altitude 01:53:16 61° 75° (ENE) 570 2.6 -20.7°
Drops below altitude 10° 01:56:53 10° 355° (N) 1,705 4.9 -20.0°
Sets 01:58:59 0° 352° (N) 2,592 5.8 -19.6°
